owner,sensor,date,latitude,longitude,vertical_datum,sea_water_temperature,qcFlag
Murphy,ioos:station:wmo:42925:2,2022-06-01T00:09:00Z,28.2425,-88.8270,16.4,27.4,11111222
Murphy,ioos:station:wmo:42925:2,2022-06-01T00:19:00Z,28.2425,-88.8270,16.1,27.4,11111222
Murphy,ioos:station:wmo:42925:2,2022-06-01T00:29:00Z,28.2425,-88.8270,16.5,27.4,11111222
Murphy,ioos:station:wmo:42925:2,2022-06-01T00:39:00Z,28.2425,-88.8270,16.1,27.4,11111222
Murphy,ioos:station:wmo:42925:2,2022-06-01T00:49:00Z,28.2425,-88.8270,16.3,27.4,11111222
Murphy,ioos:station:wmo:42925:2,2022-06-01T00:59:00Z,28.2425,-88.8270,15.8,27.4,11111222
Murphy,ioos:station:wmo:42925:2,2022-06-01T01:09:00Z,28.2425,-88.8270,15.8,27.4,11111222
Murphy,ioos:station:wmo:42925:2,2022-06-01T01:19:00Z,28.2425,-88.8270,16.7,27.4,11111222
Murphy,ioos:station:wmo:42925:2,2022-06-01T01:29:00Z,28.2425,-88.8270,16.2,27.4,11111222
Murphy,ioos:station:wmo:42925:2,2022-06-01T01:39:00Z,28.2425,-88.8270,16.0,27.3,11111222
Murphy,ioos:station:wmo:42925:2,2022-06-01T01:49:00Z,28.2425,-88.8270,15.4,27.3,11111222
Murphy,ioos:station:wmo:42925:2,2022-06-01T01:59:00Z,28.2425,-88.8270,15.8,27.2,11111222
Murphy,ioos:station:wmo:42925:2,2022-06-01T02:09:00Z,28.2425,-88.8270,15.3,27.2,11111222
Murphy,ioos:station:wmo:42925:2,2022-06-01T02:19:00Z,28.2425,-88.8270,15.6,27.2,11111222
Murphy,ioos:station:wmo:42925:2,2022-06-01T02:29:00Z,28.2425,-88.8270,15.6,27.2,11111222
Murphy,ioos:station:wmo:42925:2,2022-06-01T02:39:00Z,28.2425,-88.8270,15.8,27.3,11111222
Murphy,ioos:station:wmo:42925:2,2022-06-01T02:49:00Z,28.2425,-88.8270,15.6,27.2,11111222
Murphy,ioos:station:wmo:42925:2,2022-06-01T02:59:00Z,28.2425,-88.8270,16.2,27.2,11111222
Murphy,ioos:station:wmo:42925:2,2022-06-01T03:09:00Z,28.2425,-88.8270,15.7,27.2,11111222
Murphy,ioos:station:wmo:42925:2,2022-06-01T03:19:00Z,28.2425,-88.8270,16.1,27.3,11111222
Murphy,ioos:station:wmo:42925:2,2022-06-01T03:29:00Z,28.2425,-88.8270,15.9,27.2,11111222
Murphy,ioos:station:wmo:42925:2,2022-06-01T03:39:00Z,28.2425,-88.8270,15.6,27.2,11111222
Murphy,ioos:station:wmo:42925:2,2022-06-01T03:49:00Z,28.2425,-88.8270,15.7,27.2,11111222
Murphy,ioos:station:wmo:42925:2,2022-06-01T03:59:00Z,28.2425,-88.8270,15.1,27.2,11111222
Murphy,ioos:station:wmo:42925:2,2022-06-01T04:09:00Z,28.2425,-88.8270,16.4,27.2,11111222
Murphy,ioos:station:wmo:42925:2,2022-06-01T04:19:00Z,28.2425,-88.8270,15.7,27.2,11111222
Murphy,ioos:station:wmo:42925:2,2022-06-01T04:30:00Z,28.2425,-88.8270,16.1,27.3,11111222
Murphy,ioos:station:wmo:42925:2,2022-06-01T04:40:00Z,28.2425,-88.8270,16.2,27.2,11111222
Murphy,ioos:station:wmo:42925:2,2022-06-01T04:50:00Z,28.2425,-88.8270,15.5,27.2,11111222
Murphy,ioos:station:wmo:42925:2,2022-06-01T05:00:00Z,28.2425,-88.8270,16.3,27.2,11111222
Murphy,ioos:station:wmo:42925:2,2022-06-01T05:10:00Z,28.2425,-88.8270,16.0,27.2,11111222
Murphy,ioos:station:wmo:42925:2,2022-06-01T05:20:00Z,28.2425,-88.8270,15.6,27.3,11111222
Murphy,ioos:station:wmo:42925:2,2022-06-01T05:30:00Z,28.2425,-88.8270,15.9,27.2,11111222
Murphy,ioos:station:wmo:42925:2,2022-06-01T05:40:00Z,28.2425,-88.8270,16.2,27.2,11111222
Murphy,ioos:station:wmo:42925:2,2022-06-01T05:50:00Z,28.2425,-88.8270,15.9,27.3,11111222
Murphy,ioos:station:wmo:42925:2,2022-06-01T06:00:00Z,28.2425,-88.8270,15.9,27.3,11111222
Murphy,ioos:station:wmo:42925:2,2022-06-01T06:10:00Z,28.2425,-88.8270,16.1,27.3,11111222
Murphy,ioos:station:wmo:42925:2,2022-06-01T06:20:00Z,28.2425,-88.8270,15.6,27.3,11111222
Murphy,ioos:station:wmo:42925:2,2022-06-01T06:30:00Z,28.2425,-88.8270,16.3,27.3,11111222
Murphy,ioos:station:wmo:42925:2,2022-06-01T06:40:00Z,28.2425,-88.8270,16.1,27.3,11111222
Murphy,ioos:station:wmo:42925:2,2022-06-01T06:50:00Z,28.2425,-88.8270,15.9,27.3,11111222
Murphy,ioos:station:wmo:42925:2,2022-06-01T07:00:00Z,28.2425,-88.8270,16.1,27.3,11111222
Murphy,ioos:station:wmo:42925:2,2022-06-01T07:10:00Z,28.2425,-88.8270,16.3,27.3,11111222
Murphy,ioos:station:wmo:42925:2,2022-06-01T07:20:00Z,28.2425,-88.8270,16.1,27.2,11111222
Murphy,ioos:station:wmo:42925:2,2022-06-01T07:30:00Z,28.2425,-88.8270,16.4,27.2,11111222
Murphy,ioos:station:wmo:42925:2,2022-06-01T07:40:00Z,28.2425,-88.8270,16.3,27.1,11111222
Murphy,ioos:station:wmo:42925:2,2022-06-01T07:50:00Z,28.2425,-88.8270,16.1,27.1,11111222
Murphy,ioos:station:wmo:42925:2,2022-06-01T08:00:00Z,28.2425,-88.8270,15.9,27.1,11111222
Murphy,ioos:station:wmo:42925:2,2022-06-01T08:10:00Z,28.2425,-88.8270,16.1,27.1,11111222
Murphy,ioos:station:wmo:42925:2,2022-06-01T08:20:00Z,28.2425,-88.8270,16.5,27.1,11111222
Murphy,ioos:station:wmo:42925:2,2022-06-01T08:30:00Z,28.2425,-88.8270,16.2,27.1,11111222
Murphy,ioos:station:wmo:42925:2,2022-06-01T08:40:00Z,28.2425,-88.8270,15.9,27.0,11111222
Murphy,ioos:station:wmo:42925:2,2022-06-01T08:50:00Z,28.2425,-88.8270,15.7,27.0,11111222
Murphy,ioos:station:wmo:42925:2,2022-06-01T09:00:00Z,28.2425,-88.8270,16.0,27.0,11111222
Murphy,ioos:station:wmo:42925:2,2022-06-01T09:10:00Z,28.2425,-88.8270,15.8,26.9,11111222
Murphy,ioos:station:wmo:42925:2,2022-06-01T09:20:00Z,28.2425,-88.8270,15.8,26.9,11111222
Murphy,ioos:station:wmo:42925:2,2022-06-01T09:31:00Z,28.2425,-88.8270,15.9,26.9,11111222
Murphy,ioos:station:wmo:42925:2,2022-06-01T09:41:00Z,28.2425,-88.8270,16.3,27.0,11111222
Murphy,ioos:station:wmo:42925:2,2022-06-01T09:51:00Z,28.2425,-88.8270,15.8,26.9,11111222
Murphy,ioos:station:wmo:42925:2,2022-06-01T10:01:00Z,28.2425,-88.8270,16.1,27.0,11111222
Murphy,ioos:station:wmo:42925:2,2022-06-01T10:11:00Z,28.2425,-88.8270,15.9,27.0,11111222
Murphy,ioos:station:wmo:42925:2,2022-06-01T10:21:00Z,28.2425,-88.8270,15.9,27.0,11111222
Murphy,ioos:station:wmo:42925:2,2022-06-01T10:31:00Z,28.2425,-88.8270,16.2,27.1,11111222
Murphy,ioos:station:wmo:42925:2,2022-06-01T10:41:00Z,28.2425,-88.8270,15.5,27.0,11111222
Murphy,ioos:station:wmo:42925:2,2022-06-01T10:51:00Z,28.2425,-88.8270,15.9,27.1,11111222
Murphy,ioos:station:wmo:42925:2,2022-06-01T11:01:00Z,28.2425,-88.8270,16.2,27.2,11111222
Murphy,ioos:station:wmo:42925:2,2022-06-01T11:11:00Z,28.2425,-88.8270,15.9,27.4,11111222
Murphy,ioos:station:wmo:42925:2,2022-06-01T11:21:00Z,28.2425,-88.8270,16.2,27.4,11111222
Murphy,ioos:station:wmo:42925:2,2022-06-01T11:31:00Z,28.2425,-88.8270,16.0,27.4,11111222
Murphy,ioos:station:wmo:42925:2,2022-06-01T11:41:00Z,28.2425,-88.8270,16.3,27.3,11111222
Murphy,ioos:station:wmo:42925:2,2022-06-01T11:51:00Z,28.2425,-88.8270,16.3,27.3,11111222
Murphy,ioos:station:wmo:42925:2,2022-06-01T12:01:00Z,28.2425,-88.8270,16.2,27.2,11111222
Murphy,ioos:station:wmo:42925:2,2022-06-01T12:11:00Z,28.2425,-88.8270,16.2,27.3,11111222
Murphy,ioos:station:wmo:42925:2,2022-06-01T12:21:00Z,28.2425,-88.8270,16.2,27.2,11111222
Murphy,ioos:station:wmo:42925:2,2022-06-01T12:31:00Z,28.2425,-88.8270,16.0,27.1,11111222
Murphy,ioos:station:wmo:42925:2,2022-06-01T12:41:00Z,28.2425,-88.8270,15.7,27.2,11111222
Murphy,ioos:station:wmo:42925:2,2022-06-01T12:51:00Z,28.2425,-88.8270,16.5,27.2,11111222
Murphy,ioos:station:wmo:42925:2,2022-06-01T13:01:00Z,28.2425,-88.8270,16.7,27.3,11111222
Murphy,ioos:station:wmo:42925:2,2022-06-01T13:11:00Z,28.2425,-88.8270,16.1,27.4,11111222
Murphy,ioos:station:wmo:42925:2,2022-06-01T13:21:00Z,28.2425,-88.8270,16.9,27.4,11111222
Murphy,ioos:station:wmo:42925:2,2022-06-01T13:31:00Z,28.2425,-88.8270,16.4,27.4,11111222
Murphy,ioos:station:wmo:42925:2,2022-06-01T13:41:00Z,28.2425,-88.8270,16.3,27.5,11111222
Murphy,ioos:station:wmo:42925:2,2022-06-01T13:51:00Z,28.2425,-88.8270,16.5,27.5,11111222
Murphy,ioos:station:wmo:42925:2,2022-06-01T14:01:00Z,28.2425,-88.8270,16.7,27.5,11111222
Murphy,ioos:station:wmo:42925:2,2022-06-01T14:11:00Z,28.2425,-88.8270,16.1,27.5,11111222
Murphy,ioos:station:wmo:42925:2,2022-06-01T14:21:00Z,28.2425,-88.8270,15.9,27.3,11111222
Murphy,ioos:station:wmo:42925:2,2022-06-01T14:31:00Z,28.2425,-88.8270,16.3,27.4,11111222
Murphy,ioos:station:wmo:42925:2,2022-06-01T14:42:00Z,28.2425,-88.8270,16.4,27.5,11111222
Murphy,ioos:station:wmo:42925:2,2022-06-01T14:52:00Z,28.2425,-88.8270,16.1,27.2,11111222
Murphy,ioos:station:wmo:42925:2,2022-06-01T15:02:00Z,28.2425,-88.8270,16.6,27.5,11111222
Murphy,ioos:station:wmo:42925:2,2022-06-01T15:12:00Z,28.2425,-88.8270,16.4,27.5,11111222
Murphy,ioos:station:wmo:42925:2,2022-06-01T15:22:00Z,28.2425,-88.8270,16.7,27.5,11111222
Murphy,ioos:station:wmo:42925:2,2022-06-01T15:32:00Z,28.2425,-88.8270,16.2,27.5,11111222
Murphy,ioos:station:wmo:42925:2,2022-06-01T15:42:00Z,28.2425,-88.8270,16.3,27.5,11111222
Murphy,ioos:station:wmo:42925:2,2022-06-01T15:52:00Z,28.2425,-88.8270,15.9,27.5,11111222
Murphy,ioos:station:wmo:42925:2,2022-06-01T16:02:00Z,28.2425,-88.8270,16.1,27.5,11111222
Murphy,ioos:station:wmo:42925:2,2022-06-01T16:12:00Z,28.2425,-88.8270,16.5,27.5,11111222
Murphy,ioos:station:wmo:42925:2,2022-06-01T16:22:00Z,28.2425,-88.8270,16.6,27.5,11111222
Murphy,ioos:station:wmo:42925:2,2022-06-01T16:32:00Z,28.2425,-88.8270,16.4,27.5,11111222
Murphy,ioos:station:wmo:42925:2,2022-06-01T16:42:00Z,28.2425,-88.8270,16.7,27.5,11111222
Murphy,ioos:station:wmo:42925:2,2022-06-01T16:52:00Z,28.2425,-88.8270,16.2,27.5,11111222
Murphy,ioos:station:wmo:42925:2,2022-06-01T17:02:00Z,28.2425,-88.8270,16.3,27.5,11111222
Murphy,ioos:station:wmo:42925:2,2022-06-01T17:12:00Z,28.2425,-88.8270,16.5,27.5,11111222
Murphy,ioos:station:wmo:42925:2,2022-06-01T17:22:00Z,28.2425,-88.8270,16.5,27.5,11111222
Murphy,ioos:station:wmo:42925:2,2022-06-01T17:32:00Z,28.2425,-88.8270,16.2,27.5,11111222
Murphy,ioos:station:wmo:42925:2,2022-06-01T17:42:00Z,28.2425,-88.8270,16.3,27.5,11111222
Murphy,ioos:station:wmo:42925:2,2022-06-01T17:52:00Z,28.2425,-88.8270,16.5,27.4,11111222
Murphy,ioos:station:wmo:42925:2,2022-06-01T18:02:00Z,28.2425,-88.8270,16.0,27.4,11111222
Murphy,ioos:station:wmo:42925:2,2022-06-01T18:12:00Z,28.2425,-88.8270,16.2,27.3,11111222
Murphy,ioos:station:wmo:42925:2,2022-06-01T18:22:00Z,28.2425,-88.8270,16.4,27.3,11111222
Murphy,ioos:station:wmo:42925:2,2022-06-01T18:32:00Z,28.2425,-88.8270,16.4,27.4,11111222
Murphy,ioos:station:wmo:42925:2,2022-06-01T18:42:00Z,28.2425,-88.8270,15.8,27.4,11111222
Murphy,ioos:station:wmo:42925:2,2022-06-01T18:52:00Z,28.2425,-88.8270,16.4,27.3,11111222
Murphy,ioos:station:wmo:42925:2,2022-06-01T19:02:00Z,28.2425,-88.8270,16.4,27.4,11111222
Murphy,ioos:station:wmo:42925:2,2022-06-01T19:12:00Z,28.2425,-88.8270,16.4,27.4,11111222
Murphy,ioos:station:wmo:42925:2,2022-06-01T19:22:00Z,28.2425,-88.8270,16.8,27.4,11111222
Murphy,ioos:station:wmo:42925:2,2022-06-01T19:32:00Z,28.2425,-88.8270,16.3,27.5,11111222
Murphy,ioos:station:wmo:42925:2,2022-06-01T19:43:00Z,28.2425,-88.8270,16.5,27.5,11111222
Murphy,ioos:station:wmo:42925:2,2022-06-01T19:53:00Z,28.2425,-88.8270,16.6,27.5,11111222
Murphy,ioos:station:wmo:42925:2,2022-06-01T20:03:00Z,28.2425,-88.8270,16.3,27.5,11111222
Murphy,ioos:station:wmo:42925:2,2022-06-01T20:13:00Z,28.2425,-88.8270,16.7,27.5,11111222
Murphy,ioos:station:wmo:42925:2,2022-06-01T20:23:00Z,28.2425,-88.8270,16.2,27.4,11111222
Murphy,ioos:station:wmo:42925:2,2022-06-01T20:33:00Z,28.2425,-88.8270,16.3,27.4,11111222
Murphy,ioos:station:wmo:42925:2,2022-06-01T20:43:00Z,28.2425,-88.8270,16.7,27.4,11111222
Murphy,ioos:station:wmo:42925:2,2022-06-01T20:53:00Z,28.2425,-88.8270,16.5,27.5,11111222
Murphy,ioos:station:wmo:42925:2,2022-06-01T21:03:00Z,28.2425,-88.8270,15.9,27.5,11111222
Murphy,ioos:station:wmo:42925:2,2022-06-01T21:13:00Z,28.2425,-88.8270,16.7,27.4,11111222
Murphy,ioos:station:wmo:42925:2,2022-06-01T21:23:00Z,28.2425,-88.8270,16.2,27.5,11111222
Murphy,ioos:station:wmo:42925:2,2022-06-01T21:33:00Z,28.2425,-88.8270,16.6,27.6,11111222
Murphy,ioos:station:wmo:42925:2,2022-06-01T21:43:00Z,28.2425,-88.8270,16.6,27.6,11111222
Murphy,ioos:station:wmo:42925:2,2022-06-01T21:53:00Z,28.2425,-88.8270,16.6,27.6,11111222
Murphy,ioos:station:wmo:42925:2,2022-06-01T22:03:00Z,28.2425,-88.8270,15.8,27.3,11111222
Murphy,ioos:station:wmo:42925:2,2022-06-01T22:13:00Z,28.2425,-88.8270,16.6,27.4,11111222
Murphy,ioos:station:wmo:42925:2,2022-06-01T22:23:00Z,28.2425,-88.8270,16.5,27.4,11111222
Murphy,ioos:station:wmo:42925:2,2022-06-01T22:33:00Z,28.2425,-88.8270,15.9,27.3,11111222
Murphy,ioos:station:wmo:42925:2,2022-06-01T22:43:00Z,28.2425,-88.8270,15.9,27.4,11111222
Murphy,ioos:station:wmo:42925:2,2022-06-01T22:53:00Z,28.2425,-88.8270,16.0,27.4,11111222
Murphy,ioos:station:wmo:42925:2,2022-06-01T23:03:00Z,28.2425,-88.8270,15.8,27.4,11111222
Murphy,ioos:station:wmo:42925:2,2022-06-01T23:13:00Z,28.2425,-88.8270,16.4,27.4,11111222
Murphy,ioos:station:wmo:42925:2,2022-06-01T23:23:00Z,28.2425,-88.8270,16.4,27.4,11111222
Murphy,ioos:station:wmo:42925:2,2022-06-01T23:33:00Z,28.2425,-88.8270,16.1,27.3,11111222
Murphy,ioos:station:wmo:42925:2,2022-06-15T17:58:00Z,28.2425,-88.8270,16.6,27.9,11111222
Murphy,ioos:station:wmo:42925:2,2022-06-15T18:08:00Z,28.2425,-88.8270,16.9,27.9,11111222
Murphy,ioos:station:wmo:42925:2,2022-06-15T18:18:00Z,28.2425,-88.8270,17.0,27.9,11111222
Murphy,ioos:station:wmo:42925:2,2022-06-15T18:28:00Z,28.2425,-88.8270,16.6,27.9,11111222
Murphy,ioos:station:wmo:42925:2,2022-06-15T18:38:00Z,28.2425,-88.8270,17.1,27.8,11111222
Murphy,ioos:station:wmo:42925:2,2022-06-15T18:48:00Z,28.2425,-88.8270,16.7,27.9,11111222
Murphy,ioos:station:wmo:42925:2,2022-06-15T18:58:00Z,28.2425,-88.8270,16.8,27.9,11111222
Murphy,ioos:station:wmo:42925:2,2022-06-15T19:08:00Z,28.2425,-88.8270,16.7,27.9,11111222
Murphy,ioos:station:wmo:42925:2,2022-06-15T19:18:00Z,28.2425,-88.8270,16.7,28.0,11111222
Murphy,ioos:station:wmo:42925:2,2022-06-15T19:28:00Z,28.2425,-88.8270,17.0,27.9,11111222
Murphy,ioos:station:wmo:42925:2,2022-06-15T19:38:00Z,28.2425,-88.8270,16.8,27.9,11111222
Murphy,ioos:station:wmo:42925:2,2022-06-15T19:48:00Z,28.2425,-88.8270,17.4,27.8,11111222
Murphy,ioos:station:wmo:42925:2,2022-06-15T19:58:00Z,28.2425,-88.8270,17.2,27.9,11111222
Murphy,ioos:station:wmo:42925:2,2022-06-15T20:08:00Z,28.2425,-88.8270,17.2,27.9,11111222
Murphy,ioos:station:wmo:42925:2,2022-06-15T20:18:00Z,28.2425,-88.8270,16.7,27.8,11111222
Murphy,ioos:station:wmo:42925:2,2022-06-15T20:28:00Z,28.2425,-88.8270,17.1,27.8,11111222
Murphy,ioos:station:wmo:42925:2,2022-06-15T20:38:00Z,28.2425,-88.8270,16.6,27.8,11111222
Murphy,ioos:station:wmo:42925:2,2022-06-15T20:48:00Z,28.2425,-88.8270,16.6,27.8,11111222
Murphy,ioos:station:wmo:42925:2,2022-06-15T20:58:00Z,28.2425,-88.8270,16.2,27.7,11111222
Murphy,ioos:station:wmo:42925:2,2022-06-15T21:08:00Z,28.2425,-88.8270,16.8,27.8,11111222
Murphy,ioos:station:wmo:42925:2,2022-06-15T21:18:00Z,28.2425,-88.8270,16.7,27.8,11111222
Murphy,ioos:station:wmo:42925:2,2022-06-15T21:28:00Z,28.2425,-88.8270,16.7,27.7,11111222
Murphy,ioos:station:wmo:42925:2,2022-06-15T21:38:00Z,28.2425,-88.8270,16.7,27.6,11111222
Murphy,ioos:station:wmo:42925:2,2022-06-15T21:48:00Z,28.2425,-88.8270,16.5,27.6,11111222
Murphy,ioos:station:wmo:42925:2,2022-06-15T21:58:00Z,28.2425,-88.8270,16.8,27.6,11111222
Murphy,ioos:station:wmo:42925:2,2022-06-15T22:08:00Z,28.2425,-88.8270,16.6,27.7,11111222
Murphy,ioos:station:wmo:42925:2,2022-06-15T22:19:00Z,28.2425,-88.8270,16.8,27.8,11111222
Murphy,ioos:station:wmo:42925:2,2022-06-15T22:29:00Z,28.2425,-88.8270,16.5,27.7,11111222
Murphy,ioos:station:wmo:42925:2,2022-06-15T22:39:00Z,28.2425,-88.8270,16.8,27.7,11111222
Murphy,ioos:station:wmo:42925:2,2022-06-15T22:49:00Z,28.2425,-88.8270,16.3,27.6,11111222
Murphy,ioos:station:wmo:42925:2,2022-06-15T22:59:00Z,28.2425,-88.8270,16.5,27.6,11111222
Murphy,ioos:station:wmo:42925:2,2022-06-15T23:09:00Z,28.2425,-88.8270,16.1,27.6,11111222
Murphy,ioos:station:wmo:42925:2,2022-06-15T23:19:00Z,28.2425,-88.8270,16.3,27.6,11111222
Murphy,ioos:station:wmo:42925:2,2022-06-15T23:29:00Z,28.2425,-88.8270,16.5,27.5,11111222
Murphy,ioos:station:wmo:42925:2,2022-06-15T23:39:00Z,28.2425,-88.8270,15.9,27.5,11111222
Murphy,ioos:station:wmo:42925:2,2022-06-15T23:49:00Z,28.2425,-88.8270,15.9,27.5,11111222
Murphy,ioos:station:wmo:42925:2,2022-06-15T23:59:00Z,28.2425,-88.8270,16.4,27.5,11111222
Murphy,ioos:station:wmo:42925:2,2022-06-16T00:09:00Z,28.2425,-88.8270,15.9,27.4,11111222
Murphy,ioos:station:wmo:42925:2,2022-06-16T00:19:00Z,28.2425,-88.8270,15.7,27.4,11111222
Murphy,ioos:station:wmo:42925:2,2022-06-16T00:29:00Z,28.2425,-88.8270,16.4,27.5,11111222
Murphy,ioos:station:wmo:42925:2,2022-06-16T00:39:00Z,28.2425,-88.8270,16.2,27.5,11111222
Murphy,ioos:station:wmo:42925:2,2022-06-16T00:49:00Z,28.2425,-88.8270,15.5,27.5,11111222
Murphy,ioos:station:wmo:42925:2,2022-06-16T00:59:00Z,28.2425,-88.8270,15.6,27.4,11111222
Murphy,ioos:station:wmo:42925:2,2022-06-16T01:09:00Z,28.2425,-88.8270,16.3,27.4,11111222
Murphy,ioos:station:wmo:42925:2,2022-06-16T01:19:00Z,28.2425,-88.8270,16.3,27.4,11111222
Murphy,ioos:station:wmo:42925:2,2022-06-16T01:29:00Z,28.2425,-88.8270,16.0,27.4,11111222
Murphy,ioos:station:wmo:42925:2,2022-06-16T01:39:00Z,28.2425,-88.8270,16.2,27.4,11111222
Murphy,ioos:station:wmo:42925:2,2022-06-16T01:49:00Z,28.2425,-88.8270,16.3,27.5,11111222
Murphy,ioos:station:wmo:42925:2,2022-06-16T01:59:00Z,28.2425,-88.8270,16.4,27.5,11111222
Murphy,ioos:station:wmo:42925:2,2022-06-16T02:09:00Z,28.2425,-88.8270,15.7,27.6,11111222
Murphy,ioos:station:wmo:42925:2,2022-06-16T02:19:00Z,28.2425,-88.8270,15.9,27.6,11111222
Murphy,ioos:station:wmo:42925:2,2022-06-16T02:29:00Z,28.2425,-88.8270,16.4,27.6,11111222
Murphy,ioos:station:wmo:42925:2,2022-06-16T02:39:00Z,28.2425,-88.8270,16.4,27.6,11111222
Murphy,ioos:station:wmo:42925:2,2022-06-16T02:49:00Z,28.2425,-88.8270,16.3,27.6,11111222
Murphy,ioos:station:wmo:42925:2,2022-06-16T02:59:00Z,28.2425,-88.8270,16.7,27.6,11111222
Murphy,ioos:station:wmo:42925:2,2022-06-16T03:09:00Z,28.2425,-88.8270,17.0,27.8,11111222
Murphy,ioos:station:wmo:42925:2,2022-06-16T03:20:00Z,28.2425,-88.8270,17.3,27.9,11111222
Murphy,ioos:station:wmo:42925:2,2022-06-16T03:30:00Z,28.2425,-88.8270,17.2,27.9,11111222
Murphy,ioos:station:wmo:42925:2,2022-06-16T03:40:00Z,28.2425,-88.8270,17.3,27.9,11111222
Murphy,ioos:station:wmo:42925:2,2022-06-16T03:50:00Z,28.2425,-88.8270,16.9,28.0,11111222
Murphy,ioos:station:wmo:42925:2,2022-06-16T04:00:00Z,28.2425,-88.8270,17.1,28.1,11111222
Murphy,ioos:station:wmo:42925:2,2022-06-16T04:10:00Z,28.2425,-88.8270,17.5,27.9,11111222
Murphy,ioos:station:wmo:42925:2,2022-06-16T04:20:00Z,28.2425,-88.8270,16.6,27.9,11111222
Murphy,ioos:station:wmo:42925:2,2022-06-16T04:30:00Z,28.2425,-88.8270,16.8,27.9,11111222
Murphy,ioos:station:wmo:42925:2,2022-06-16T04:40:00Z,28.2425,-88.8270,17.0,27.9,11111222
Murphy,ioos:station:wmo:42925:2,2022-06-16T04:50:00Z,28.2425,-88.8270,16.7,27.9,11111222
Murphy,ioos:station:wmo:42925:2,2022-06-16T05:00:00Z,28.2425,-88.8270,17.2,28.0,11111222
Murphy,ioos:station:wmo:42925:2,2022-06-16T05:10:00Z,28.2425,-88.8270,16.6,28.0,11111222
Murphy,ioos:station:wmo:42925:2,2022-06-16T05:20:00Z,28.2425,-88.8270,17.3,28.0,11111222
Murphy,ioos:station:wmo:42925:2,2022-06-16T05:30:00Z,28.2425,-88.8270,17.2,28.0,11111222
Murphy,ioos:station:wmo:42925:2,2022-06-16T05:40:00Z,28.2425,-88.8270,16.7,28.0,11111222
Murphy,ioos:station:wmo:42925:2,2022-06-16T05:50:00Z,28.2425,-88.8270,17.2,28.0,11111222
Murphy,ioos:station:wmo:42925:2,2022-06-16T06:00:00Z,28.2425,-88.8270,16.8,28.1,11111222
Murphy,ioos:station:wmo:42925:2,2022-06-16T06:10:00Z,28.2425,-88.8270,17.4,28.1,11111222
Murphy,ioos:station:wmo:42925:2,2022-06-16T06:20:00Z,28.2425,-88.8270,17.0,28.1,11111222
Murphy,ioos:station:wmo:42925:2,2022-06-16T06:30:00Z,28.2425,-88.8270,17.1,28.1,11111222
Murphy,ioos:station:wmo:42925:2,2022-06-16T06:40:00Z,28.2425,-88.8270,17.0,28.1,11111222
Murphy,ioos:station:wmo:42925:2,2022-06-16T06:50:00Z,28.2425,-88.8270,17.2,28.1,11111222
Murphy,ioos:station:wmo:42925:2,2022-06-16T07:00:00Z,28.2425,-88.8270,17.7,28.1,11111222
Murphy,ioos:station:wmo:42925:2,2022-06-16T07:10:00Z,28.2425,-88.8270,17.3,28.1,11111222
Murphy,ioos:station:wmo:42925:2,2022-06-16T07:20:00Z,28.2425,-88.8270,17.2,28.1,11111222
Murphy,ioos:station:wmo:42925:2,2022-06-16T07:30:00Z,28.2425,-88.8270,17.4,28.1,11111222
Murphy,ioos:station:wmo:42925:2,2022-06-16T07:40:00Z,28.2425,-88.8270,17.0,28.1,11111222
Murphy,ioos:station:wmo:42925:2,2022-06-16T07:50:00Z,28.2425,-88.8270,17.1,28.1,11111222
Murphy,ioos:station:wmo:42925:2,2022-06-16T08:00:00Z,28.2425,-88.8270,17.7,28.2,11111222
Murphy,ioos:station:wmo:42925:2,2022-06-16T08:10:00Z,28.2425,-88.8270,17.1,28.2,11111222
Murphy,ioos:station:wmo:42925:2,2022-06-16T08:21:00Z,28.2425,-88.8270,17.2,28.2,11111222
Murphy,ioos:station:wmo:42925:2,2022-06-16T08:31:00Z,28.2425,-88.8270,17.7,28.2,11111222
Murphy,ioos:station:wmo:42925:2,2022-06-16T08:41:00Z,28.2425,-88.8270,17.2,28.2,11111222
Murphy,ioos:station:wmo:42925:2,2022-06-16T08:51:00Z,28.2425,-88.8270,17.4,28.2,11111222
Murphy,ioos:station:wmo:42925:2,2022-06-16T09:01:00Z,28.2425,-88.8270,17.3,28.2,11111222
Murphy,ioos:station:wmo:42925:2,2022-06-16T09:11:00Z,28.2425,-88.8270,17.5,28.2,11111222
Murphy,ioos:station:wmo:42925:2,2022-06-16T09:21:00Z,28.2425,-88.8270,17.6,28.2,11111222
Murphy,ioos:station:wmo:42925:2,2022-06-16T09:31:00Z,28.2425,-88.8270,17.0,28.2,11111222
Murphy,ioos:station:wmo:42925:2,2022-06-16T09:41:00Z,28.2425,-88.8270,17.7,28.2,11111222
Murphy,ioos:station:wmo:42925:2,2022-06-16T09:51:00Z,28.2425,-88.8270,17.4,28.2,11111222
Murphy,ioos:station:wmo:42925:2,2022-06-16T10:01:00Z,28.2425,-88.8270,17.3,28.2,11111222
Murphy,ioos:station:wmo:42925:2,2022-06-16T10:11:00Z,28.2425,-88.8270,17.1,28.2,11111222
Murphy,ioos:station:wmo:42925:2,2022-06-16T10:21:00Z,28.2425,-88.8270,17.6,28.2,11111222
Murphy,ioos:station:wmo:42925:2,2022-06-16T10:31:00Z,28.2425,-88.8270,17.5,28.1,11111222
Murphy,ioos:station:wmo:42925:2,2022-06-16T10:41:00Z,28.2425,-88.8270,17.5,28.2,11111222
Murphy,ioos:station:wmo:42925:2,2022-06-16T10:51:00Z,28.2425,-88.8270,17.7,28.2,11111222
Murphy,ioos:station:wmo:42925:2,2022-06-16T11:01:00Z,28.2425,-88.8270,17.3,28.1,11111222
Murphy,ioos:station:wmo:42925:2,2022-06-16T11:11:00Z,28.2425,-88.8270,16.8,28.1,11111222
Murphy,ioos:station:wmo:42925:2,2022-06-16T11:21:00Z,28.2425,-88.8270,17.1,28.0,11111222
Murphy,ioos:station:wmo:42925:2,2022-06-16T11:31:00Z,28.2425,-88.8270,17.0,28.0,11111222
Murphy,ioos:station:wmo:42925:2,2022-06-16T11:41:00Z,28.2425,-88.8270,16.9,27.9,11111222
Murphy,ioos:station:wmo:42925:2,2022-06-16T11:51:00Z,28.2425,-88.8270,17.4,27.9,11111222
Murphy,ioos:station:wmo:42925:2,2022-06-16T12:01:00Z,28.2425,-88.8270,16.4,27.9,11111222
Murphy,ioos:station:wmo:42925:2,2022-06-16T12:11:00Z,28.2425,-88.8270,17.4,28.0,11111222
Murphy,ioos:station:wmo:42925:2,2022-06-16T12:21:00Z,28.2425,-88.8270,16.9,28.0,11111222
Murphy,ioos:station:wmo:42925:2,2022-06-16T12:31:00Z,28.2425,-88.8270,17.4,28.0,11111222
Murphy,ioos:station:wmo:42925:2,2022-06-16T12:41:00Z,28.2425,-88.8270,17.0,28.0,11111222
Murphy,ioos:station:wmo:42925:2,2022-06-16T12:51:00Z,28.2425,-88.8270,17.4,28.0,11111222
Murphy,ioos:station:wmo:42925:2,2022-06-16T13:01:00Z,28.2425,-88.8270,16.9,27.9,11111222
Murphy,ioos:station:wmo:42925:2,2022-06-16T13:11:00Z,28.2425,-88.8270,16.8,27.9,11111222
Murphy,ioos:station:wmo:42925:2,2022-06-16T13:21:00Z,28.2425,-88.8270,17.0,27.9,11111222
Murphy,ioos:station:wmo:42925:2,2022-06-16T13:32:00Z,28.2425,-88.8270,17.1,27.9,11111222
Murphy,ioos:station:wmo:42925:2,2022-06-16T13:42:00Z,28.2425,-88.8270,17.0,28.0,11111222
Murphy,ioos:station:wmo:42925:2,2022-06-16T13:52:00Z,28.2425,-88.8270,16.9,28.1,11111222
Murphy,ioos:station:wmo:42925:2,2022-06-16T14:02:00Z,28.2425,-88.8270,17.1,28.0,11111222
Murphy,ioos:station:wmo:42925:2,2022-06-16T14:12:00Z,28.2425,-88.8270,17.2,28.0,11111222
Murphy,ioos:station:wmo:42925:2,2022-06-16T14:22:00Z,28.2425,-88.8270,17.2,28.0,11111222
Murphy,ioos:station:wmo:42925:2,2022-06-16T14:32:00Z,28.2425,-88.8270,16.8,28.0,11111222